Location: *
(32.8140°S, 174.6161°E)
Time: 17:20:20
(UTC+00:00)

Cosmos 2322 - Pass Details

Date: 10 December 2019
Orbit: 842 x 853 km, 71.0° (Epoch: 26 January)

Event Time Altitude Azimuth Distance (km) Brightness Sun altitude
Exits shadow 16:04:19 - 342° (NNW) 2,501 5.7 -11.8°
Reaches altitude 10° 16:04:26 10° 342° (NNW) 2,459 5.6 -11.8°
Maximum altitude 16:10:05 88° 67° (ENE) 856 3.7 -10.8°
Drops below altitude 10° 16:15:50 10° 159° (SSE) 2,494 7.1 -9.9°
Sets 16:18:19 0° 159° (SSE) 3,437 7.9 -9.4°
